Tracking 19644 objects as of 25-Apr-2019
HD Live streaming from Space Station
objects crossing your sky now

METEOR 2-5 DEB

Track METEOR 2-5 DEB now!
10-day predictions


NORAD ID: 38273
Int'l Code: 1979-095BT
Perigee: 833.0 km
Apogee: 838.6 km
Inclination: 81.2 °
Period: 101.5 minutes
Semi major axis: 7206 km
RCS: 0.0001 m2 (small)
Launch date: October 31, 1979
Source: Commonwealth of Independent States (former USSR) (CIS)
Launch site: PLESETSK MISSILE AND SPACE COMPLEX (PKMTR)

Note: This is SATELLITE DEBRIS
aabbcc
Your satellite tracking list
Your tracking list is empty




NASA's NSSDC Master Catalog

Two Line Element Set (TLE):
1 38273U 79095BT  19114.62227552  .00000868  00000-0  40995-3 0  9992
2 38273  81.2144 217.4650 0003878  35.9000 324.2436 14.19015411430731
Source of the keplerian elements: AFSPC